BREEZE-M DEB, 39599

Orbit data source: Space-Track

BREEZE-M DEB, 39599 is space debris in HEO originally from a launch on Fri, 14 Mar 2008 UTC launched from the Tyuratam Missile And Space Complex (TTMTR). Debris objects in space refer to the collection of defunct objects orbiting the Earth. Examples of debris include non-operational satellites, rocket bodies, and fragments generated from explosions, collisions, or faulty payload assembly.

Loading next visibility...
Identifier
39599, 2008-011DK
Orbit
HEO
Country
Flag of CISCIS
Related business
Manufacturer
Unknown
Mission
Spacecraft
Bus & Motor
Unknown
Mass
Unknown
Launch date (UTC)
2008-03-14 (18 years ago)
Launch vehicle
Unknown
Launch site
Tyuratam Missile And Space Complex (TTMTR)
Object type
Payload
Rocket body
Debris
Shape & HBR
Unknown shape, 0.1 m
Radar Cross Section
Medium (>0.1 m² and <1 m²)

Expand to show TLE details & history
Last TLE update: 3 days ago

TLE from 3 days ago
0 BREEZE-M DEB
1 39599U 08011DK  26170.70671144  .00002064  00000-0  17883-1 0  9991
2 39599  50.1058 342.6254 6441170 193.9832 132.4601  3.15818473144725
Epoch: 2026-06-19T16:57Z
TLE epoch observation values (Epoch: 2026-06-19T16:57:39.868Z)
Latitude
-0.00004°
Longitude
-179.73312°
Altitude
24,243.705 km
Speed
2.392 km/s
True Right ascension
22h 50m 27s
True Declination
0° 00' 00"
Sunlit
Object was in daylight at epoch
Visualization orbit readout
Latitude
Unknown
Longitude
Unknown
Altitude
Unknown
Speed
Unknown
Apparent Right ascension
Unknown
Apparent Declination
Unknown
Sunlit
N/A
Visualization observer readout
Local Sidereal Time
14:06:01
Azimuth
Unknown
Elevation
Unknown
Doppler factor
Unknown
Orbital elements
Apogee altitude
25,886.204 km
Perigee altitude
605.752 km
Semi-major axis
19,624.115 km
Eccentricity
0.64412
Inclination
50.1058°
RAAN
342.6254°
Arg. of periapsis
193.9832°
True anomaly
166.075°
Mean anomaly
132.4601°
Eccentric anomaly
150.58526°
Mean motion
0.78951 °/min
Orbital period
455.98 mins
BSTAR
0.017883
Loading maneuver chart data...
Computing Atmospheric mass density...
Loading historical data...
Loading historical data...
Loading historical data...
Loading historical data...
Loading historical data...
Loading historical data...
Loading historical data...

Documentation

Showing up to 5 results
|